Wind_Speed
8 8 7 7 6 5 4 3 2 2 3 3 3 4 4 4 4 4 5 5 5 5 5 5 4 4 4 3 3 3 2 2 3 3 3 4 5 6 6 7 8 8 9
8 8 8 8 7 6 5 4 3 4 4 4 4 5 5 5 6 6 6 6 6 6 6 6 5 5 4 4 3 3 2 1 2 2 3 4 5 6 6 7 7 8 8
9 9 10 10 9 7 6 5 4 5 5 5 5 5 6 6 6 7 7 7 7 7 7 7 6 6 6 5 4 3 2 1 0 2 3 4 5 6 6 7 7 7 7
12 11 10 11 10 9 7 6 6 5 5 5 5 6 6 7 7 7 8 8 8 8 8 8 8 7 7 6 5 4 3 2 1 1 2 3 4 5 6 7 7 6 6
12 12 12 12 11 10 8 8 7 6 6 6 6 6 7 8 8 8 8 9 9 9 9 9 9 8 8 7 6 5 4 3 3 3 2 3 4 5 5 6 6 6 6
12 13 13 13 12 11 10 9 8 7 6 6 6 7 8 8 9 9 9 10 10 10 10 10 10 10 9 9 8 7 6 5 5 4 4 4 5 5 6 6 6 6 5
11 13 15 15 13 12 10 9 8 7 6 6 7 8 8 9 9 9 10 10 10 10 11 11 11 10 10 10 9 8 7 6 7 6 5 5 6 6 6 6 6 6 6
12 13 15 16 14 13 12 9 8 7 7 7 8 9 9 9 10 10 10 10 10 10 10 10 10 10 9 9 9 9 8 7 7 7 7 6 6 6 6 6 6 7 6
13 13 14 16 15 14 12 10 9 8 8 8 9 9 9 10 10 10 10 10 10 10 10 10 10 10 10 10 9 9 9 8 8 8 8 8 8 7 8 7 7 7 7
12 13 14 15 16 15 13 11 10 9 8 9 9 9 10 10 10 10 10 10 10 10 10 10 10 10 10 10 10 9 8 9 9 10 10 9 9 8 8 8 7 7 7
13 14 15 15 16 15 14 12 10 10 9 9 9 9 10 10 10 9 9 9 9 9 9 9 9 10 10 10 10 9 8 9 10 10 10 9 10 9 9 9 8 8 8
12 13 14 16 16 16 15 12 11 10 10 9 9 9 9 9 9 9 8 7 8 8 8 9 9 9 9 9 9 8 8 9 10 9 9 9 10 9 9 9 8 9 8
13 13 14 15 16 16 16 14 13 11 10 10 9 9 8 8 8 7 7 7 7 7 7 7 8 8 8 8 8 7 6 7 9 9 8 8 9 10 9 9 8 9 8
12 13 14 16 16 16 16 16 14 11 10 9 9 7 6 6 6 6 6 5 5 6 6 6 6 7 8 8 7 6 5 6 7 8 8 7 8 8 9 9 9 9 9
11 13 14 16 15 15 15 15 13 10 9 8 7 6 6 5 5 5 4 5 5 5 5 5 5 6 6 6 6 5 4 4 5 6 7 7 6 8 9 9 10 10 10
10 12 13 13 14 13 13 13 12 10 8 8 7 7 6 5 4 4 3 3 3 4 4 4 3 4 5 5 5 4 4 4 4 5 5 6 6 6 7 9 9 10 9
10 12 12 11 12 12 12 12 11 10 9 8 7 7 6 5 4 3 2 1 1 1 1 1 1 2 3 3 3 3 2 2 2 3 4 5 6 6 7 7 8 9 10
10 11 10 11 12 12 12 12 11 10 9 8 7 7 6 5 4 3 2 2 1 1 1 1 1 1 2 2 3 3 2 2 2 2 2 3 4 5 6 7 7 8 9
11 11 11 12 13 13 13 12 11 10 9 8 8 7 6 5 4 3 3 3 2 2 2 2 2 2 2 3 4 3 3 2 1 1 2 2 3 3 4 6 7 7 8
11 12 11 12 13 13 13 13 12 11 10 8 8 7 6 6 5 4 4 4 3 3 3 3 3 3 4 4 4 5 5 4 3 2 1 1 1 2 3 4 5 6 7
9 11 12 12 13 13 13 13 12 11 10 9 9 8 7 7 6 6 5 5 4 4 4 5 5 5 5 5 5 5 5 5 5 4 3 2 1 2 2 3 4 5 6
7 10 13 12 12 13 13 13 12 12 11 10 10 9 8 8 7 7 6 6 5 5 5 5 5 5 6 6 6 6 6 6 6 5 4 3 3 2 2 3 3 4 5
7 10 11 11 12 13 13 13 13 13 12 11 11 10 10 9 8 8 7 6 6 5 4 4 4 4 4 5 5 5 5 6 6 6 5 4 4 3 2 2 3 4 5
7 8 10 11 11 13 13 13 13 14 13 13 12 12 11 10 9 9 8 7 6 5 4 3 2 3 3 4 4 4 5 5 5 6 6 5 4 4 3 3 3 4 5
5 7 9 10 11 12 13 13 13 14 14 14 14 13 12 11 10 9 8 8 7 6 4 3 1 1 1 2 3 4 4 4 4 5 5 5 5 4 4 4 4 5 5
3 5 8 10 11 11 13 14 14 14 15 15 15 14 13 12 11 10 9 9 8 7 5 4 3 2 2 3 3 4 4 5 5 5 5 5 6 6 6 6 6 6 6
Wind_Direction
222 220 211 202 197 196 198 207 229 259 294 305 309 305 303 302 302 302 304 307 307 308 311 315 323 330 335 342 350 356 15 43 57 76 85 91 105 122 126 123 116 115 115
225 219 215 207 203 202 205 213 232 248 270 287 293 295 299 300 299 297 298 301 301 300 301 304 308 312 316 319 324 335 347 31 69 87 97 107 115 127 129 127 122 118 118
227 216 212 208 204 205 211 219 233 244 257 270 281 289 293 295 296 296 296 297 295 294 294 295 298 302 303 303 302 307 310 316 76 100 113 117 127 133 134 134 130 124 123
226 217 210 208 207 208 210 218 228 241 248 260 274 285 291 292 293 295 295 295 293 291 290 290 291 293 295 295 293 288 287 282 253 177 154 137 143 145 142 143 139 132 131
223 217 212 208 208 207 208 215 222 232 246 259 271 281 287 290 291 292 292 293 291 288 286 286 286 287 287 286 285 282 276 269 255 237 204 168 161 164 159 156 152 146 141
219 216 211 210 208 208 209 214 220 230 244 258 269 277 283 287 290 291 290 292 289 286 284 284 284 283 281 279 278 277 272 261 253 245 223 196 184 180 173 169 167 162 156
216 214 211 207 205 210 212 214 220 230 244 257 267 275 281 286 288 289 290 291 290 287 285 283 283 281 278 276 275 275 270 260 255 246 235 211 201 193 190 187 184 181 174
216 212 211 206 205 210 214 217 220 230 242 253 264 272 279 285 288 289 290 291 291 290 287 284 282 280 278 276 274 274 268 262 255 253 246 227 218 209 205 202 197 196 192
220 213 212 210 209 210 212 217 223 232 241 251 262 271 280 287 289 289 290 290 289 287 286 284 283 279 277 276 273 271 270 265 259 253 246 234 226 219 212 209 205 202 203
218 212 211 214 212 211 212 216 223 231 241 253 263 272 280 285 287 290 290 287 286 284 285 285 283 280 276 275 274 270 268 264 261 255 251 238 227 220 215 213 211 210 212
226 219 217 216 211 211 211 216 224 232 242 252 262 272 277 282 285 289 290 285 284 284 286 286 285 282 279 277 275 270 264 261 265 261 256 244 229 222 219 217 220 219 220
220 216 218 213 209 209 213 217 225 233 241 251 262 270 275 279 282 283 284 283 284 284 285 285 285 284 282 281 279 275 265 259 262 264 262 248 235 225 224 223 223 223 221
214 216 215 215 212 211 214 217 223 231 241 250 257 264 270 273 279 281 281 283 286 286 285 285 287 287 285 283 283 279 271 265 262 261 265 254 241 234 231 230 227 226 227
215 214 213 217 221 222 220 218 219 226 237 243 251 257 259 263 271 274 278 286 287 284 285 284 285 286 286 288 289 285 275 274 265 269 260 259 246 234 232 231 232 232 232
215 216 218 219 222 223 221 221 217 222 230 232 234 242 243 249 257 263 275 282 284 285 287 288 284 286 290 294 296 298 290 269 265 264 262 257 242 235 234 233 235 236 235
210 210 213 216 220 221 217 215 213 219 223 223 228 232 233 234 242 254 268 276 281 287 292 292 290 291 299 301 300 304 295 267 258 262 260 251 243 243 241 237 236 236 235
220 213 214 221 216 214 207 204 206 211 215 218 222 224 219 219 229 233 237 246 249 278 318 329 328 323 322 326 324 320 310 285 261 264 264 248 247 252 245 235 235 236 239
223 215 219 213 208 205 200 198 199 208 209 210 211 211 204 205 213 209 190 174 158 129 67 29 24 9 5 6 359 351 343 330 286 273 268 248 247 249 244 239 239 243 248
226 221 221 212 210 205 201 196 199 204 204 207 207 199 195 196 197 185 165 152 134 116 97 78 61 45 40 36 34 31 25 19 349 315 270 255 255 250 252 247 243 247 251
222 213 209 206 207 203 197 196 199 198 200 204 202 197 191 187 181 171 160 148 129 115 104 92 77 68 60 54 47 44 42 38 30 26 3 300 273 267 270 267 253 252 256
221 212 208 203 201 200 197 194 194 195 198 201 198 194 189 182 171 167 160 148 133 120 109 97 88 82 69 62 56 50 47 45 47 47 41 27 340 302 280 276 268 264 262
220 204 199 199 200 198 196 195 194 198 201 201 195 192 187 180 172 168 161 148 140 129 116 105 92 85 73 64 58 53 49 47 46 45 43 35 21 2 326 291 279 277 271
199 191 193 193 193 192 194 195 198 198 200 198 194 193 189 183 178 175 170 161 154 146 131 112 94 80 70 62 54 49 42 35 32 34 28 22 19 17 1 333 306 295 285
180 184 195 194 195 197 200 199 199 199 199 198 196 194 191 187 184 183 183 178 174 167 155 137 109 83 72 58 49 43 38 30 22 17 16 11 7 4 355 345 331 314 301
181 190 198 202 204 202 201 199 199 199 199 200 200 197 193 191 190 191 193 193 193 191 188 183 168 102 60 37 27 23 19 14 11 3 360 359 357 350 340 330 321 313 307
184 199 204 205 206 203 202 202 200 199 200 200 199 196 198 198 199 200 203 205 206 207 210 214 225 254 296 321 331 341 344 342 344 341 336 335 334 331 327 322 315 308 303
Height
5890 5891 5892 5893 5894 5896 5897 5898 5898 5899 5899 5899 5899 5899 5899 5899 5898 5897 5897 5896 5895 5894 5893 5893 5892 5891 5891 5890 5890 5889 5889 5888 5887 5887 5886 5886 5885 5885 5885 5886 5886 5886 5887
5889 5890 5891 5892 5894 5895 5896 5897 5898 5898 5899 5899 5899 5899 5899 5898 5898 5897 5896 5895 5895 5894 5893 5893 5892 5892 5891 5890 5890 5889 5889 5888 5888 5887 5887 5886 5886 5886 5886 5886 5887 5887 5888
5888 5889 5890 5892 5893 5894 5895 5897 5897 5898 5898 5898 5898 5898 5898 5898 5897 5897 5896 5895 5894 5893 5893 5892 5892 5891 5890 5890 5889 5889 5889 5888 5888 5888 5887 5887 5887 5887 5887 5887 5888 5888 5889
5885 5887 5889 5890 5891 5893 5894 5896 5896 5897 5897 5898 5898 5898 5898 5897 5897 5896 5895 5895 5894 5893 5892 5892 5891 5891 5890 5889 5889 5888 5888 5888 5888 5888 5888 5888 5888 5888 5888 5888 5889 5889 5890
5883 5885 5886 5888 5890 5891 5893 5894 5895 5896 5896 5897 5897 5897 5897 5897 5896 5896 5895 5894 5893 5892 5891 5891 5890 5890 5889 5888 5888 5888 5888 5888 5888 5887 5888 5888 5888 5888 5888 5889 5889 5890 5891
5881 5882 5884 5886 5888 5890 5891 5893 5894 5895 5895 5896 5896 5896 5896 5896 5895 5895 5894 5893 5892 5891 5890 5890 5889 5889 5888 5887 5887 5887 5887 5887 5887 5887 5887 5887 5888 5888 5888 5889 5890 5891 5891
5878 5880 5882 5883 5886 5888 5890 5891 5892 5893 5894 5894 5895 5895 5895 5894 5894 5893 5893 5892 5891 5890 5889 5888 5888 5887 5887 5886 5886 5886 5886 5886 5886 5886 5887 5887 5888 5888 5889 5889 5890 5891 5892
5874 5877 5879 5881 5884 5886 5888 5889 5891 5892 5892 5893 5893 5894 5893 5893 5892 5892 5891 5890 5889 5889 5888 5887 5886 5886 5885 5885 5885 5885 5885 5885 5885 5885 5886 5886 5887 5888 5888 5889 5889 5890 5891
5871 5874 5877 5880 5882 5884 5886 5888 5889 5890 5891 5891 5892 5892 5892 5891 5891 5890 5889 5888 5888 5887 5886 5885 5885 5884 5883 5883 5883 5884 5884 5884 5884 5884 5885 5885 5886 5887 5888 5888 5889 5890 5891
5869 5872 5875 5878 5880 5882 5884 5885 5887 5888 5889 5889 5890 5890 5890 5889 5889 5888 5887 5887 5886 5885 5885 5884 5883 5882 5882 5881 5881 5882 5883 5883 5883 5883 5883 5884 5885 5886 5887 5887 5888 5889 5890
5867 5869 5872 5874 5877 5879 5882 5884 5885 5886 5887 5888 5888 5888 5888 5887 5887 5886 5886 5885 5884 5884 5883 5882 5882 5881 5880 5879 5880 5880 5881 5881 5881 5881 5882 5882 5883 5884 5885 5886 5887 5888 5889
5865 5867 5870 5872 5874 5877 5879 5881 5883 5884 5885 5886 5886 5886 5886 5885 5885 5885 5884 5883 5883 5882 5882 5881 5880 5879 5878 5878 5878 5878 5879 5879 5879 5879 5880 5880 5881 5882 5883 5884 5885 5886 5887
5861 5864 5867 5870 5872 5874 5877 5879 5881 5882 5883 5884 5884 5884 5884 5884 5883 5883 5883 5882 5881 5881 5880 5879 5879 5878 5877 5876 5876 5877 5877 5878 5878 5878 5878 5879 5880 5881 5882 5883 5884 5885 5886
5860 5862 5865 5867 5869 5872 5874 5876 5878 5879 5881 5882 5882 5882 5882 5882 5882 5882 5882 5881 5880 5880 5879 5878 5878 5877 5876 5875 5875 5875 5876 5876 5876 5876 5876 5877 5878 5879 5880 5881 5882 5883 5885
5858 5860 5862 5864 5867 5869 5872 5874 5876 5877 5878 5879 5880 5881 5881 5881 5881 5881 5881 5880 5879 5878 5878 5877 5877 5876 5875 5874 5874 5874 5874 5875 5875 5875 5875 5876 5877 5877 5878 5879 5880 5881 5882
5856 5858 5860 5862 5865 5867 5869 5872 5873 5875 5876 5878 5878 5879 5879 5880 5880 5880 5880 5879 5878 5878 5877 5876 5876 5875 5874 5873 5873 5873 5873 5873 5874 5874 5874 5874 5875 5875 5876 5877 5878 5879 5880
5854 5856 5858 5860 5862 5865 5867 5869 5871 5873 5874 5876 5877 5877 5878 5878 5879 5879 5879 5878 5878 5877 5876 5876 5875 5875 5874 5873 5873 5872 5872 5872 5872 5873 5872 5872 5873 5874 5874 5875 5876 5877 5878
5851 5853 5856 5858 5860 5863 5865 5867 5869 5871 5872 5874 5875 5876 5877 5877 5878 5878 5878 5878 5877 5877 5876 5876 5875 5875 5874 5873 5872 5872 5871 5871 5871 5871 5871 5871 5872 5872 5873 5873 5874 5875 5876
5847 5850 5852 5855 5858 5860 5863 5865 5868 5869 5871 5872 5874 5875 5875 5876 5877 5877 5877 5877 5877 5876 5876 5876 5875 5874 5874 5873 5872 5872 5871 5871 5871 5871 5871 5870 5871 5871 5871 5872 5872 5873 5873
5844 5847 5850 5853 5856 5859 5861 5864 5866 5867 5869 5871 5872 5873 5874 5875 5876 5876 5876 5877 5876 5876 5876 5876 5875 5874 5874 5873 5872 5872 5871 5871 5870 5870 5870 5870 5870 5870 5870 5870 5871 5871 5871
5842 5844 5848 5851 5854 5857 5860 5862 5864 5866 5868 5869 5871 5872 5873 5874 5875 5876 5876 5876 5876 5876 5876 5876 5875 5875 5874 5873 5873 5872 5872 5871 5871 5870 5870 5870 5869 5869 5869 5869 5869 5869 5869
5841 5844 5847 5850 5852 5855 5857 5859 5861 5864 5866 5868 5869 5871 5872 5873 5874 5875 5876 5876 5876 5876 5876 5876 5876 5875 5874 5873 5873 5872 5872 5872 5871 5870 5870 5870 5869 5868 5868 5868 5868 5868 5868
5841 5842 5845 5848 5850 5852 5855 5857 5860 5862 5864 5866 5868 5870 5871 5872 5873 5874 5875 5876 5876 5876 5876 5876 5876 5875 5875 5874 5873 5873 5872 5872 5871 5870 5870 5869 5869 5868 5868 5867 5867 5866 5866
5840 5842 5844 5846 5849 5851 5853 5855 5857 5860 5862 5864 5867 5868 5870 5871 5872 5873 5874 5875 5876 5876 5876 5876 5875 5875 5875 5874 5874 5873 5873 5872 5871 5870 5870 5869 5868 5868 5867 5866 5866 5865 5865
5840 5841 5843 5844 5847 5849 5851 5853 5856 5858 5861 5863 5865 5867 5868 5870 5871 5872 5873 5874 5874 5875 5875 5875 5875 5874 5874 5874 5873 5873 5872 5871 5871 5870 5869 5868 5867 5867 5866 5865 5865 5864 5863
5839 5840 5841 5843 5845 5847 5849 5852 5854 5856 5859 5861 5863 5865 5867 5868 5869 5871 5871 5872 5873 5873 5873 5873 5873 5873 5873 5873 5872 5872 5871 5870 5869 5869 5868 5867 5866 5865 5864 5864 5863 5862 5862